Time,TemperatureF,DewpointF,PressureIn,WindDirection,WindDirectionDegrees,WindSpeedMPH,WindSpeedGustMPH,Humidity,HourlyPrecipIn,Conditions,Clouds,dailyrainin,SoftwareType,DateUTC
2013-07-01 00:01:00,62.0,57.0,30.03,NNW,333,0.0,-999.0,83,-99.99,,,-99.99,,2013-07-01 05:01:00,
2013-07-01 00:11:00,62.0,57.0,30.03,NNW,333,0.0,-999.0,83,-99.99,,,-99.99,,2013-07-01 05:11:00,
2013-07-01 00:22:00,62.0,57.0,30.03,NNW,333,0.0,-999.0,84,-99.99,,,-99.99,,2013-07-01 05:22:00,
2013-07-01 00:33:00,62.0,57.0,30.03,NNW,333,0.0,-999.0,83,-99.99,,,-99.99,,2013-07-01 05:33:00,
2013-07-01 00:42:00,62.0,57.0,30.03,NNW,333,0.0,-999.0,83,-99.99,,,-99.99,,2013-07-01 05:42:00,
2013-07-01 00:52:00,61.0,55.0,30.03,NNW,333,0.0,-999.0,82,-99.99,,,-99.99,,2013-07-01 05:52:00,
2013-07-01 01:02:00,61.0,55.0,30.03,NNW,333,0.0,-999.0,82,-99.99,,,-99.99,,2013-07-01 06:02:00,
2013-07-01 01:12:00,61.0,55.0,30.03,NNW,333,0.0,-999.0,82,-99.99,,,-99.99,,2013-07-01 06:12:00,
2013-07-01 01:24:00,60.0,54.0,30.03,NNW,333,0.0,-999.0,82,-99.99,,,-99.99,,2013-07-01 06:24:00,
2013-07-01 01:33:00,59.0,54.0,30.03,NNW,333,0.0,-999.0,84,-99.99,,,-99.99,,2013-07-01 06:33:00,
2013-07-01 01:43:00,59.0,54.0,30.03,NNW,333,0.0,-999.0,84,-99.99,,,-99.99,,2013-07-01 06:43:00,
2013-07-01 01:53:00,59.0,54.0,30.03,NNW,333,0.0,-999.0,84,-99.99,,,-99.99,,2013-07-01 06:53:00,
2013-07-01 02:01:00,59.0,55.0,30.04,NNW,333,0.0,-999.0,86,-99.99,,,-99.99,,2013-07-01 07:01:00,
2013-07-01 02:11:00,59.0,55.0,30.04,NNW,333,0.0,-999.0,86,-99.99,,,-99.99,,2013-07-01 07:11:00,
2013-07-01 02:22:00,58.0,54.0,30.04,NNW,333,0.0,-999.0,87,-99.99,,,-99.99,,2013-07-01 07:22:00,
2013-07-01 02:33:00,58.0,54.0,30.04,West,281,0.0,-999.0,87,-99.99,,,-99.99,,2013-07-01 07:33:00,
2013-07-01 02:43:00,58.0,54.0,30.04,West,281,0.0,-999.0,87,-99.99,,,-99.99,,2013-07-01 07:43:00,
2013-07-01 02:53:00,57.0,53.0,30.04,West,273,0.0,-999.0,88,-99.99,,,-99.99,,2013-07-01 07:53:00,
2013-07-01 03:01:00,58.0,54.0,30.04,NNW,331,0.0,-999.0,87,-99.99,,,-99.99,,2013-07-01 08:01:00,
2013-07-01 03:11:00,58.0,54.0,30.04,NNW,331,0.0,-999.0,87,-99.99,,,-99.99,,2013-07-01 08:11:00,
2013-07-01 03:22:00,57.0,53.0,30.04,NW,318,0.0,-999.0,87,-99.99,,,-99.99,,2013-07-01 08:22:00,
2013-07-01 03:33:00,56.0,52.0,30.04,NNW,336,0.0,-999.0,88,-99.99,,,-99.99,,2013-07-01 08:33:00,
2013-07-01 03:42:00,56.0,52.0,30.04,NNW,336,0.0,-999.0,88,-99.99,,,-99.99,,2013-07-01 08:42:00,
2013-07-01 03:52:00,57.0,53.0,30.04,NNW,336,0.0,-999.0,88,-99.99,,,-99.99,,2013-07-01 08:52:00,
2013-07-01 04:02:00,57.0,53.0,30.04,NNW,336,0.0,-999.0,87,-99.99,,,-99.99,,2013-07-01 09:02:00,
2013-07-01 04:11:00,57.0,53.0,30.04,NNW,336,0.0,-999.0,87,-99.99,,,-99.99,,2013-07-01 09:11:00,
2013-07-01 04:22:00,57.0,53.0,30.04,NNW,336,0.0,-999.0,88,-99.99,,,-99.99,,2013-07-01 09:22:00,
2013-07-01 04:34:00,56.0,52.0,30.05,NNW,336,0.0,-999.0,87,-99.99,,,-99.99,,2013-07-01 09:34:00,
2013-07-01 04:43:00,56.0,52.0,30.05,NNW,336,0.0,-999.0,87,-99.99,,,-99.99,,2013-07-01 09:43:00,
2013-07-01 04:53:00,56.0,52.0,30.05,NNW,336,0.0,-999.0,87,-99.99,,,-99.99,,2013-07-01 09:53:00,
2013-07-01 05:03:00,56.0,52.0,30.06,NNW,336,0.0,-999.0,88,-99.99,,,-99.99,,2013-07-01 10:03:00,
2013-07-01 05:11:00,56.0,52.0,30.06,NNW,336,0.0,-999.0,88,-99.99,,,-99.99,,2013-07-01 10:11:00,
2013-07-01 05:22:00,56.0,53.0,30.06,NNW,336,0.0,-999.0,89,-99.99,,,-99.99,,2013-07-01 10:22:00,
2013-07-01 05:33:00,56.0,52.0,30.06,NNW,336,0.0,-999.0,88,-99.99,,,-99.99,,2013-07-01 10:33:00,
2013-07-01 05:42:00,56.0,52.0,30.06,NNW,336,0.0,-999.0,88,-99.99,,,-99.99,,2013-07-01 10:42:00,
2013-07-01 05:52:00,56.0,52.0,30.06,NNW,336,0.0,-999.0,88,-99.99,,,-99.99,,2013-07-01 10:52:00,
2013-07-01 06:02:00,56.0,53.0,30.07,NNW,336,0.0,-999.0,89,-99.99,,,-99.99,,2013-07-01 11:02:00,
2013-07-01 06:11:00,56.0,53.0,30.07,NNW,336,0.0,-999.0,89,-99.99,,,-99.99,,2013-07-01 11:11:00,
2013-07-01 06:22:00,56.0,53.0,30.07,NNW,336,0.0,-999.0,89,-99.99,,,-99.99,,2013-07-01 11:22:00,
2013-07-01 06:33:00,55.0,52.0,30.08,NNW,336,0.0,-999.0,90,-99.99,,,-99.99,,2013-07-01 11:33:00,
2013-07-01 06:43:00,55.0,52.0,30.08,NNW,336,0.0,-999.0,90,-99.99,,,-99.99,,2013-07-01 11:43:00,
2013-07-01 06:52:00,56.0,53.0,30.08,NNW,336,0.0,-999.0,90,-99.99,,,-99.99,,2013-07-01 11:52:00,
2013-07-01 07:01:00,56.0,53.0,30.08,NNW,336,0.0,-999.0,91,-99.99,,,-99.99,,2013-07-01 12:01:00,
2013-07-01 07:11:00,56.0,53.0,30.08,NNW,336,0.0,-999.0,91,-99.99,,,-99.99,,2013-07-01 12:11:00,
2013-07-01 07:22:00,56.0,53.0,30.09,NNW,336,0.0,-999.0,91,-99.99,,,-99.99,,2013-07-01 12:22:00,
2013-07-01 07:33:00,57.0,54.0,30.09,NNW,336,0.0,-999.0,91,-99.99,,,-99.99,,2013-07-01 12:33:00,
2013-07-01 07:43:00,57.0,54.0,30.09,NNW,336,0.0,-999.0,91,-99.99,,,-99.99,,2013-07-01 12:43:00,
2013-07-01 07:53:00,58.0,56.0,30.09,NNW,336,0.0,-999.0,92,-99.99,,,-99.99,,2013-07-01 12:53:00,
2013-07-01 08:01:00,58.0,56.0,30.09,NNW,336,0.0,-999.0,92,-99.99,,,-99.99,,2013-07-01 13:01:00,
2013-07-01 08:12:00,58.0,56.0,30.09,NNW,336,0.0,-999.0,92,-99.99,,,-99.99,,2013-07-01 13:12:00,
2013-07-01 08:23:00,60.0,57.0,30.10,NNW,336,0.0,-999.0,91,-99.99,,,-99.99,,2013-07-01 13:23:00,
2013-07-01 08:33:00,61.0,58.0,30.10,NNW,336,0.0,-999.0,90,-99.99,,,-99.99,,2013-07-01 13:33:00,
2013-07-01 08:43:00,61.0,58.0,30.10,NNW,336,0.0,-999.0,90,-99.99,,,-99.99,,2013-07-01 13:43:00,
2013-07-01 08:53:00,63.0,59.0,30.10,NNW,336,0.0,-999.0,88,-99.99,,,-99.99,,2013-07-01 13:53:00,
2013-07-01 09:01:00,65.0,60.0,30.10,NNW,336,0.0,-999.0,83,-99.99,,,-99.99,,2013-07-01 14:01:00,
2013-07-01 09:11:00,65.0,60.0,30.10,NNW,336,0.0,-999.0,83,-99.99,,,-99.99,,2013-07-01 14:11:00,
2013-07-01 09:22:00,67.0,61.0,30.10,NNW,336,0.0,-999.0,80,-99.99,,,-99.99,,2013-07-01 14:22:00,
2013-07-01 09:34:00,69.0,61.0,30.10,NNW,336,0.0,-999.0,76,-99.99,,,-99.99,,2013-07-01 14:34:00,
2013-07-01 09:43:00,69.0,61.0,30.10,NNW,336,0.0,-999.0,76,-99.99,,,-99.99,,2013-07-01 14:43:00,
2013-07-01 09:53:00,71.0,61.0,30.11,NNW,336,0.0,-999.0,70,-99.99,,,-99.99,,2013-07-01 14:53:00,
2013-07-01 10:02:00,72.0,62.0,30.11,NNW,336,0.0,-999.0,71,-99.99,,,-99.99,,2013-07-01 15:02:00,
2013-07-01 10:11:00,72.0,62.0,30.11,NNW,336,0.0,-999.0,71,-99.99,,,-99.99,,2013-07-01 15:11:00,
2013-07-01 10:23:00,73.0,61.0,30.10,NNW,336,0.0,-999.0,65,-99.99,,,-99.99,,2013-07-01 15:23:00,
2013-07-01 10:34:00,75.0,62.0,30.10,NNW,336,0.0,-999.0,64,-99.99,,,-99.99,,2013-07-01 15:34:00,
2013-07-01 10:43:00,75.0,62.0,30.10,NNW,336,0.0,-999.0,64,-99.99,,,-99.99,,2013-07-01 15:43:00,
2013-07-01 10:53:00,76.0,62.0,30.10,NNW,336,0.0,-999.0,62,-99.99,,,-99.99,,2013-07-01 15:53:00,
2013-07-01 11:01:00,77.0,62.0,30.10,NNW,340,0.0,-999.0,59,-99.99,,,-99.99,,2013-07-01 16:01:00,
2013-07-01 11:11:00,77.0,62.0,30.10,NNW,340,0.0,-999.0,59,-99.99,,,-99.99,,2013-07-01 16:11:00,
2013-07-01 11:22:00,78.0,62.0,30.10,NNW,340,0.0,-999.0,57,-99.99,,,-99.99,,2013-07-01 16:22:00,
2013-07-01 11:33:00,78.0,60.0,30.10,North,355,0.0,-999.0,54,-99.99,,,-99.99,,2013-07-01 16:33:00,
2013-07-01 11:44:00,78.0,60.0,30.10,North,355,0.0,-999.0,54,-99.99,,,-99.99,,2013-07-01 16:44:00,
2013-07-01 11:53:00,79.0,61.0,30.10,North,355,0.0,-999.0,54,-99.99,,,-99.99,,2013-07-01 16:53:00,
2013-07-01 12:02:00,80.0,59.0,30.10,North,355,0.0,-999.0,49,-99.99,,,-99.99,,2013-07-01 17:02:00,
2013-07-01 12:12:00,80.0,59.0,30.10,North,355,0.0,-999.0,49,-99.99,,,-99.99,,2013-07-01 17:12:00,
2013-07-01 12:23:00,80.0,61.0,30.09,North,355,0.0,-999.0,52,-99.99,,,-99.99,,2013-07-01 17:23:00,
2013-07-01 12:33:00,81.0,60.0,30.09,NNW,334,0.0,-999.0,49,-99.99,,,-99.99,,2013-07-01 17:33:00,
2013-07-01 12:43:00,81.0,60.0,30.09,NNW,334,0.0,-999.0,49,-99.99,,,-99.99,,2013-07-01 17:43:00,
2013-07-01 12:53:00,81.0,58.0,30.09,NNW,337,0.0,-999.0,46,-99.99,,,-99.99,,2013-07-01 17:53:00,
2013-07-01 13:02:00,81.0,59.0,30.09,North,351,1.0,-999.0,47,-99.99,,,-99.99,,2013-07-01 18:02:00,
2013-07-01 13:11:00,81.0,59.0,30.09,North,351,1.0,-999.0,47,-99.99,,,-99.99,,2013-07-01 18:11:00,
2013-07-01 13:22:00,81.0,52.0,30.09,North,355,0.0,-999.0,37,-99.99,,,-99.99,,2013-07-01 18:22:00,
2013-07-01 13:43:00,82.0,61.0,30.08,NNW,340,0.0,-999.0,49,-99.99,,,-99.99,,2013-07-01 18:43:00,
2013-07-01 13:53:00,82.0,58.0,30.08,North,11,0.0,-999.0,44,-99.99,,,-99.99,,2013-07-01 18:53:00,
2013-07-01 14:01:00,81.0,62.0,30.07,NNE,28,0.0,-999.0,52,-99.99,,,-99.99,,2013-07-01 19:01:00,
2013-07-01 14:22:00,83.0,60.0,30.07,North,360,0.0,-999.0,46,-99.99,,,-99.99,,2013-07-01 19:22:00,
2013-07-01 14:33:00,82.0,54.0,30.07,North,360,0.0,-999.0,38,-99.99,,,-99.99,,2013-07-01 19:33:00,
2013-07-01 14:44:00,82.0,54.0,30.07,North,360,0.0,-999.0,38,-99.99,,,-99.99,,2013-07-01 19:44:00,
2013-07-01 14:53:00,82.0,56.0,30.06,North,355,0.0,-999.0,41,-99.99,,,-99.99,,2013-07-01 19:53:00,
2013-07-01 15:01:00,83.0,58.0,30.06,North,355,0.0,-999.0,42,-99.99,,,-99.99,,2013-07-01 20:01:00,
2013-07-01 15:11:00,83.0,58.0,30.06,North,355,0.0,-999.0,42,-99.99,,,-99.99,,2013-07-01 20:11:00,
2013-07-01 15:22:00,83.0,56.0,30.06,North,355,0.0,-999.0,40,-99.99,,,-99.99,,2013-07-01 20:22:00,
2013-07-01 15:34:00,83.0,58.0,30.06,North,350,0.0,-999.0,43,-99.99,,,-99.99,,2013-07-01 20:34:00,
2013-07-01 15:43:00,83.0,58.0,30.06,North,350,0.0,-999.0,43,-99.99,,,-99.99,,2013-07-01 20:43:00,
2013-07-01 15:52:00,84.0,57.0,30.05,North,350,0.0,-999.0,40,-99.99,,,-99.99,,2013-07-01 20:52:00,
2013-07-01 16:01:00,83.0,59.0,30.05,North,350,0.0,-999.0,45,-99.99,,,-99.99,,2013-07-01 21:01:00,
2013-07-01 16:11:00,83.0,59.0,30.05,North,350,0.0,-999.0,45,-99.99,,,-99.99,,2013-07-01 21:11:00,
2013-07-01 16:34:00,83.0,58.0,30.04,NNW,330,0.0,-999.0,42,-99.99,,,-99.99,,2013-07-01 21:34:00,
2013-07-01 16:43:00,83.0,58.0,30.04,NNW,330,0.0,-999.0,42,-99.99,,,-99.99,,2013-07-01 21:43:00,
2013-07-01 16:53:00,82.0,59.0,30.04,North,5,1.0,-999.0,46,-99.99,,,-99.99,,2013-07-01 21:53:00,
2013-07-01 17:01:00,83.0,59.0,30.03,North,5,0.0,-999.0,44,-99.99,,,-99.99,,2013-07-01 22:01:00,
2013-07-01 17:11:00,83.0,59.0,30.03,North,5,0.0,-999.0,44,-99.99,,,-99.99,,2013-07-01 22:11:00,
2013-07-01 17:23:00,83.0,58.0,30.03,North,5,0.0,-999.0,42,-99.99,,,-99.99,,2013-07-01 22:23:00,
2013-07-01 17:33:00,82.0,57.0,30.04,North,5,0.0,-999.0,43,-99.99,,,-99.99,,2013-07-01 22:33:00,
2013-07-01 17:43:00,82.0,57.0,30.04,North,5,0.0,-999.0,43,-99.99,,,-99.99,,2013-07-01 22:43:00,
2013-07-01 17:53:00,82.0,57.0,30.04,North,5,0.0,-999.0,43,-99.99,,,-99.99,,2013-07-01 22:53:00,
2013-07-01 18:01:00,81.0,59.0,30.03,North,5,0.0,-999.0,48,-99.99,,,-99.99,,2013-07-01 23:01:00,
2013-07-01 18:11:00,81.0,59.0,30.03,North,5,0.0,-999.0,48,-99.99,,,-99.99,,2013-07-01 23:11:00,
2013-07-01 18:22:00,82.0,59.0,30.03,North,5,0.0,-999.0,46,-99.99,,,-99.99,,2013-07-01 23:22:00,
2013-07-01 18:33:00,82.0,60.0,30.03,North,5,0.0,-999.0,47,-99.99,,,-99.99,,2013-07-01 23:33:00,
2013-07-01 18:44:00,82.0,60.0,30.03,North,5,0.0,-999.0,47,-99.99,,,-99.99,,2013-07-01 23:44:00,
2013-07-01 18:53:00,82.0,60.0,30.03,North,5,0.0,-999.0,47,-99.99,,,-99.99,,2013-07-01 23:53:00,
2013-07-01 19:01:00,81.0,60.0,30.03,North,5,0.0,-999.0,49,-99.99,,,-99.99,,2013-07-02 00:01:00,
2013-07-01 19:12:00,81.0,60.0,30.03,North,5,0.0,-999.0,49,-99.99,,,-99.99,,2013-07-02 00:12:00,
2013-07-01 19:22:00,80.0,58.0,30.03,North,5,0.0,-999.0,47,-99.99,,,-99.99,,2013-07-02 00:22:00,
2013-07-01 19:33:00,79.0,56.0,30.03,North,5,0.0,-999.0,46,-99.99,,,-99.99,,2013-07-02 00:33:00,
2013-07-01 19:43:00,79.0,56.0,30.03,North,5,0.0,-999.0,46,-99.99,,,-99.99,,2013-07-02 00:43:00,
2013-07-01 19:53:00,78.0,57.0,30.03,North,5,0.0,-999.0,48,-99.99,,,-99.99,,2013-07-02 00:53:00,
2013-07-01 20:01:00,76.0,58.0,30.03,North,5,0.0,-999.0,53,-99.99,,,-99.99,,2013-07-02 01:01:00,
2013-07-01 20:11:00,76.0,58.0,30.03,North,5,0.0,-999.0,53,-99.99,,,-99.99,,2013-07-02 01:11:00,
2013-07-01 20:22:00,75.0,59.0,30.03,North,5,0.0,-999.0,57,-99.99,,,-99.99,,2013-07-02 01:22:00,
2013-07-01 20:33:00,74.0,60.0,30.03,North,5,0.0,-999.0,62,-99.99,,,-99.99,,2013-07-02 01:33:00,
2013-07-01 20:43:00,74.0,60.0,30.03,North,5,0.0,-999.0,62,-99.99,,,-99.99,,2013-07-02 01:43:00,
2013-07-01 21:11:00,70.0,59.0,30.03,North,5,0.0,-999.0,68,-99.99,,,-99.99,,2013-07-02 02:11:00,
2013-07-01 21:22:00,70.0,60.0,30.04,North,5,0.0,-999.0,70,-99.99,,,-99.99,,2013-07-02 02:22:00,
2013-07-01 21:43:00,68.0,58.0,30.04,North,5,0.0,-999.0,71,-99.99,,,-99.99,,2013-07-02 02:43:00,
2013-07-01 21:53:00,68.0,59.0,30.04,North,5,0.0,-999.0,72,-99.99,,,-99.99,,2013-07-02 02:53:00,
2013-07-01 22:01:00,67.0,58.0,30.04,North,5,0.0,-999.0,74,-99.99,,,-99.99,,2013-07-02 03:01:00,
2013-07-01 22:12:00,67.0,58.0,30.04,North,5,0.0,-999.0,74,-99.99,,,-99.99,,2013-07-02 03:12:00,
2013-07-01 22:24:00,66.0,58.0,30.05,North,5,0.0,-999.0,76,-99.99,,,-99.99,,2013-07-02 03:24:00,
2013-07-01 22:32:00,65.0,58.0,30.06,North,5,0.0,-999.0,78,-99.99,,,-99.99,,2013-07-02 03:32:00,
2013-07-01 22:43:00,65.0,58.0,30.06,North,5,0.0,-999.0,78,-99.99,,,-99.99,,2013-07-02 03:43:00,
2013-07-01 22:53:00,65.0,58.0,30.06,North,5,0.0,-999.0,79,-99.99,,,-99.99,,2013-07-02 03:53:00,
2013-07-01 23:02:00,64.0,58.0,30.06,NNW,343,0.0,-999.0,81,-99.99,,,-99.99,,2013-07-02 04:02:00,
2013-07-01 23:11:00,64.0,58.0,30.06,NNW,343,0.0,-999.0,81,-99.99,,,-99.99,,2013-07-02 04:11:00,
2013-07-01 23:22:00,64.0,58.0,30.06,NNW,342,0.0,-999.0,82,-99.99,,,-99.99,,2013-07-02 04:22:00,
2013-07-01 23:32:00,64.0,58.0,30.06,NNW,342,0.0,-999.0,82,-99.99,,,-99.99,,2013-07-02 04:32:00,
2013-07-01 23:42:00,64.0,58.0,30.06,NNW,342,0.0,-999.0,82,-99.99,,,-99.99,,2013-07-02 04:42:00,
2013-07-01 23:53:00,64.0,58.0,30.06,NNW,342,0.0,-999.0,82,-99.99,,,-99.99,,2013-07-02 04:53:00,